Location: Newark
(48.3500°N, 1.3500°E)
Time: 06:54:43
(UTC+00:00)

ISS - Visible Passes

Search period start: 20 October 2020 00:00
Search period end: 30 October 2020 00:00
Orbit: 418 x 419 km, 51.6° (Epoch: 20 October)

Date Brightness Start Highest point End Pass type
(mag) Time Alt. Az. Time Alt. Az. Time Alt. Az.
22 Oct -1.1 05:38:49 10° S 05:41:23 20° SE 05:43:57 10° E visible
23 Oct -0.8 04:52:08 10° SSE 04:53:50 13° SE 04:55:33 10° ESE visible
24 Oct -2.7 05:39:13 10° SW 05:42:26 45° SSE 05:45:40 10° ENE visible
25 Oct -2.1 04:52:30 14° SSW 04:54:47 30° SE 04:57:47 10° E visible
26 Oct -1.5 04:07:12 20° SE 04:07:12 20° SE 04:09:45 10° E visible
26 Oct -3.8 05:40:17 10° WSW 05:43:39 90° NNW 05:47:02 10° ENE visible
27 Oct -3.5 04:54:43 35° SW 04:55:56 65° SSE 04:59:16 10° ENE visible
28 Oct -2.1 04:09:09 34° ESE 04:09:09 34° ESE 04:11:28 10° ENE visible
28 Oct -3.5 05:42:07 13° W 05:45:00 56° NNW 05:48:20 10° ENE visible
29 Oct -0.2 03:23:31 10° E 03:23:31 10° E 03:23:34 10° E visible
29 Oct -3.8 04:56:28 49° W 04:57:12 69° NNW 05:00:34 10° ENE visible
